Date,TemperatureHighF,TemperatureAvgF,TemperatureLowF,DewpointHighF,DewpointAvgF,DewpointLowF,HumidityHigh,HumidityAvg,HumidityLow,PressureMaxIn,PressureMinIn,WindSpeedMaxMPH,WindSpeedAvgMPH,GustSpeedMaxMPH,PrecipitationSumIn
2013-3-1,63.0,46.7,29.7,25.5,19.8,10.8,67,38,14,30.35,30.20,29,3,30,0.00
2013-3-2,66.6,48.7,32.4,30.6,26.7,22.6,69,45,24,30.47,30.22,17,1,17,0.00
2013-3-3,78.3,59.1,35.4,30.9,25.1,19.2,69,34,11,30.22,29.75,29,4,31,0.00
2013-3-4,85.3,68.8,54.7,41.5,23.4,9.9,43,20,6,29.80,29.61,32,7,37,0.00
2013-3-5,62.4,49.2,37.8,41.0,19.5,7.9,59,35,14,30.40,29.80,42,8,43,0.00
2013-3-6,64.9,46.9,29.3,18.7,14.5,8.2,59,31,12,30.46,30.17,17,2,18,0.00
2013-3-7,74.7,57.5,42.8,47.3,32.6,15.6,68,40,29,30.17,29.99,19,3,23,0.00
2013-3-8,70.9,63.0,55.2,60.3,56.6,46.8,94,80,64,30.03,29.83,20,5,25,0.00
2013-3-9,79.9,69.0,63.1,59.5,50.3,24.1,83,56,22,29.84,29.57,35,5,36,0.05
2013-3-10,63.3,53.2,45.0,30.2,22.7,11.7,50,32,17,30.13,29.74,31,10,31,0.05
2013-3-11,71.6,50.3,28.8,23.9,18.2,13.1,60,31,14,30.20,29.97,18,2,19,0.00
2013-3-12,70.3,56.1,38.1,30.6,26.4,19.4,66,35,15,30.31,29.99,24,5,25,0.00
2013-3-13,76.8,57.4,37.8,36.3,30.3,24.8,62,38,21,30.42,30.20,21,1,21,0.00
2013-3-14,80.8,63.3,43.5,47.1,38.7,33.8,72,44,20,30.29,30.10,19,1,21,0.00
2013-3-15,85.5,66.9,47.8,51.4,42.3,37.8,72,45,19,30.14,29.84,19,2,22,0.00
2013-3-16,91.9,72.8,54.7,49.8,41.8,31.5,72,38,12,29.86,29.55,25,3,25,0.00
2013-3-17,79.5,64.0,47.5,45.7,42.4,36.9,68,47,28,29.79,29.60,24,2,26,0.00
2013-3-18,71.2,61.7,49.5,43.5,40.9,35.8,68,47,34,29.94,29.66,30,2,30,0.00
2013-3-19,81.3,61.3,45.1,49.1,43.6,38.5,82,56,25,30.08,29.79,20,3,22,0.00
2013-3-20,70.5,59.6,44.4,45.9,32.4,27.0,62,38,21,30.28,29.96,20,2,20,0.00
2013-3-21,84.9,66.7,50.5,54.3,45.2,32.2,63,47,28,29.97,29.44,27,5,27,0.00
2013-3-22,69.4,58.0,48.0,56.3,46.4,39.2,81,66,52,29.77,29.53,22,4,22,0.00
2013-3-23,82.6,60.2,47.3,49.5,39.7,14.2,88,57,9,29.85,29.54,41,4,41,0.00
2013-3-24,54.0,44.0,33.4,44.4,21.5,13.6,76,43,22,30.23,29.84,30,8,31,0.00
2013-3-25,56.3,43.8,30.4,17.6,13.9,7.2,54,32,17,30.42,30.20,15,1,15,0.00
2013-3-26,66.0,49.0,29.3,19.6,16.5,13.3,54,30,14,30.48,30.20,20,2,21,0.00
2013-3-27,74.8,58.0,41.7,45.7,34.4,16.9,59,42,29,30.23,30.00,25,4,25,0.00
2013-3-28,80.4,63.7,48.2,54.7,49.2,42.4,86,62,39,30.10,29.96,20,3,21,0.00
2013-3-29,79.5,67.5,58.3,57.6,55.7,53.6,86,68,43,30.07,29.93,19,2,19,0.00
2013-3-30,87.6,71.1,55.2,60.8,54.7,41.4,92,61,22,30.04,29.76,25,2,26,0.00
2013-3-31,80.2,70.7,64.4,57.7,53.4,46.6,76,56,35,29.94,29.80,24,2,24,0.00